www.pogodaiklimat.ru

Погода и климат >> Архив погоды >> Норвегия >> Кьевик


ПОГОДА в Кьевике

  • Прогноз погоды в Кьевике
  • Монитор погоды в Кьевике

АРХИВ ПОГОДЫ в Кьевике

Время (UTC), дата Ветер
(напр.,м/с)
 
Видим.   Явления Облачность Т
(С)
Тd
(С)
f
(%)
Тe
(С)
Тes
(С)
Комфортность P
(гПа)
Po
(гПа)
Тmin
(С)
Tmax
(С)
R
(мм)
R24
(мм)
S
(см)
10 12.06 СВ 7
{13}
н/о н/о +12.3 +9.5 83 +9 +9 1017.7 1015.6
11 12.06 СВ 6
{11}
н/о н/о +12.4 +9.0 80 +10 +10 1018.7 1016.6
12 12.06 СВ 7
{15}
н/о н/о +12.4 +8.6 78 +10 +10 1017.6 1015.5
13 12.06 СВ 6
{14}
н/о н/о +10.9 +10.0 94 +8 +8 1017.5 1015.4 1
14 12.06 СВ 6
{10}
н/о н/о +10.8 +10.1 95 +7 +7 1016.9 1014.8
15 12.06 СВ 9
{14}
н/о н/о +10.6 +9.7 94 +6 +6 1016.2 1014.0
16 12.06 С 7
{13}
н/о н/о +11.0 +8.9 87 +8 +8 1015.0 1012.9
17 12.06 СВ 8
{14}
н/о н/о +10.7 +8.7 87 +7 +7 1014.7 1012.6
18 12.06 СВ 8
{14}
н/о н/о +10.4 +8.8 90 +6 +6 1013.8 1011.7 +10.4 +12.6 2
19 12.06 СВ 9
{14}
н/о н/о +10.3 +9.0 92 +6 +6 1013.7 1011.6
20 12.06 СВ 8
{15}
н/о н/о +10.4 +9.3 93 +6 +6 1013.4 1011.3
21 12.06 СВ 7
{13}
н/о н/о +10.0 +9.9 99 +6 +6 1013.0 1010.9
22 12.06 СВ 6
{11}
н/о н/о +9.9 +9.9 100 +6 +6 1012.4 1010.3
23 12.06 СВ 7
{10}
н/о н/о +9.8 +9.8 100 +6 +6 1010.5 1008.4 1
00 13.06 СВ 6
{15}
н/о н/о +10.2 +10.2 100 +7 +7 1010.3 1008.2
01 13.06 СВ 5
{12}
н/о н/о +10.3 +10.3 100 +7 +7 1009.3 1007.2
02 13.06 С 5
{9}
н/о н/о +10.0 +10.0 100 +7 +7 1008.1 1006.0 1
03 13.06 СВ 4
{7}
н/о н/о +10.1 +10.1 100 +7 +7 1007.7 1005.6
04 13.06 СВ 4
{6}
н/о н/о +10.2 +10.2 100 +7 +7 1008.1 1006.0
05 13.06 СВ 5
{8}
н/о н/о +10.6 +10.6 100 +7 +7 1008.0 1005.9
06 13.06 СВ 4
{12}
н/о н/о +10.7 +10.7 100 +8 +8 1007.9 1005.8 +9.8 +10.8 4
07 13.06 СВ 3
{6}
н/о н/о +11.1 +11.1 100 +9 +9 1008.1 1006.0
08 13.06 СВ 3
{5}
н/о н/о +11.5 +11.5 100 +10 +10 1008.7 1006.6
09 13.06 Ю 5
{9}
н/о н/о +12.3 +12.3 100 +10 +10 1009.3 1007.2
10 13.06 ЮЗ 4
{10}
н/о н/о +12.9 +12.8 99 +11 +11 1009.9 1007.8
11 13.06 Ю 5
{7}
н/о н/о +13.9 +12.0 88 +12 +12 1010.5 1008.4
12 13.06 Ю 4
{10}
н/о н/о +15.2 +12.9 86 +14 +14 1011.0 1009.0
13 13.06 Ю 5
{7}
н/о н/о +15.2 +11.3 78 +14 +14 1011.6 1009.6
14 13.06 ЮЗ 3
{5}
н/о н/о +15.8 +11.5 76 +15 +15 1011.7 1009.6
15 13.06 ЮЗ 3
{4}
н/о н/о +16.6 +10.2 66 +16 +16 1011.8 1009.7
16 13.06 Ю 5
{7}
н/о н/о +15.8 +11.3 75 +15 +15 1012.5 1010.5
17 13.06 В 5
{8}
н/о н/о +14.1 +11.9 87 +12 +12 1013.1 1011.0
18 13.06 В 5
{8}
н/о н/о +13.8 +12.2 90 +12 +12 1013.4 1011.3 +10.8 +17.5
19 13.06 В 5
{7}
н/о н/о +13.7 +11.7 88 +12 +12 1013.8 1011.7
20 13.06 В 5
{6}
н/о н/о +13.1 +12.5 96 +11 +11 1014.1 1012.0
21 13.06 В 4
{5}
н/о н/о +12.2 +12.2 100 +10 +10 1014.7 1012.6
22 13.06 СВ 4
{5}
н/о н/о +11.6 +11.6 100 +9 +9 1015.0 1012.9
23 13.06 СВ 4
{6}
н/о н/о +11.1 +11.1 100 +9 +9 1015.1 1013.0
00 14.06 СВ 5
{7}
н/о н/о +11.1 +11.1 100 +8 +8 1014.6 1012.5
01 14.06 СВ 5
{7}
н/о н/о +11.4 +11.4 100 +9 +9 1014.9 1012.8
02 14.06 СВ 5
{7}
н/о н/о +11.2 +11.2 100 +8 +8 1014.3 1012.2
03 14.06 СВ 5
{7}
н/о н/о +12.1 +12.1 100 +9 +9 1014.2 1012.1
04 14.06 В 4
{8}
н/о н/о +12.9 +12.9 100 +11 +11 1015.2 1013.1 1
05 14.06 В 4
{7}
н/о н/о +13.0 +13.0 100 +11 +11 1015.0 1012.9 5
06 14.06 СВ 3
{7}
н/о н/о +14.4 +14.4 100 +13 +13 1015.1 1013.0 +11.0 +14.4 6
07 14.06 Ю 4
{5}
н/о н/о +15.3 +13.9 91 +14 +14 1015.5 1013.5
08 14.06 Ю 4
{6}
н/о н/о +16.5 +13.7 84 +16 +16 1016.3 1014.3
09 14.06 Ю 5
{6}
н/о н/о +15.9 +13.0 83 +15 +15 1016.9 1014.8
10 14.06 ЮЗ 3
{6}
н/о н/о +16.4 +13.0 80 +16 +16 1017.0 1014.9
11 14.06 Ю 3
{6}
н/о н/о +17.5 +13.1 75 +18 +18 1017.6 1015.6
12 14.06 ЮВ 4
{7}
н/о н/о +18.8 +11.6 63 +19 +19 1018.1 1016.0
13 14.06 Ю 4
{8}
н/о н/о +18.4 +12.4 68 +19 +19 1018.5 1016.5
14 14.06 ЮВ 3
{7}
н/о н/о +17.6 +11.8 69 +18 +18 1018.5 1016.4
15 14.06 В 4
{6}
н/о н/о +16.6 +12.5 77 +16 +16 1018.1 1016.0
16 14.06 В 2
{5}
н/о н/о +17.7 +12.1 70 +18 +18 1017.9 1015.8
17 14.06 В 4
{6}
н/о н/о +15.9 +12.6 81 +15 +15 1018.6 1016.5
18 14.06 В 3
{8}
н/о н/о +15.6 +13.0 85 +15 +15 1018.2 1016.1 +14.3 +19.3
19 14.06 СВ 2
{4}
н/о н/о +15.8 +12.4 80 +16 +16 1018.2 1016.1
20 14.06 СЗ 1
{3}
н/о н/о +14.8 +11.7 82 +15 +15 1018.3 1016.2
21 14.06 СВ 2
{3}
н/о н/о +12.7 +12.7 100 +12 +12 1018.6 1016.5
22 14.06 СВ 2
{3}
н/о н/о +11.2 +11.2 100 +10 +10 1018.9 1016.7
23 14.06 СВ 3
{4}
н/о н/о +11.3 +11.3 100 +9 +9 1018.8 1016.7
00 15.06 СВ 3
{4}
н/о н/о +11.2 +11.2 100 +9 +9 1018.7 1016.6
01 15.06 СВ 3
{4}
н/о н/о +11.1 +11.1 100 +9 +9 1018.7 1016.6
02 15.06 СВ 3
{4}
н/о н/о +10.9 +10.9 100 +9 +9 1018.4 1016.3
03 15.06 СВ 4
{5}
н/о н/о +10.7 +10.7 100 +8 +8 1018.5 1016.4
04 15.06 СВ 4
{6}
н/о н/о +12.5 +12.5 100 +10 +10 1017.9 1015.8
05 15.06 СВ 3
{9}
н/о н/о +14.0 +13.9 99 +13 +13 1017.8 1015.7
06 15.06 СВ 5
{9}
н/о н/о +15.4 +13.7 90 +14 +14 1017.6 1015.5 +10.7 +16.5
07 15.06 СВ 5
{7}
н/о н/о +16.7 +13.5 81 +16 +16 1017.4 1015.3
08 15.06 СВ 7
{11}
н/о н/о +19.0 +12.2 65 +19 +19 1016.9 1014.8
09 15.06 СВ 7
{11}
н/о н/о +20.5 +12.2 59 +22 +22 комфорт 1016.4 1014.3
10 15.06 СВ 9
{13}
н/о н/о +20.7 +11.3 55 +22 +22 комфорт 1015.7 1013.7
11 15.06 СВ 9
{14}
н/о н/о +20.7 +10.6 52 +22 +22 комфорт 1015.0 1013.0
12 15.06 В 8
{14}
н/о н/о +20.6 +9.5 49 +22 +22 комфорт 1015.0 1012.9
13 15.06
{11}
н/о 1012.6
14 15.06 В 7
{11}
н/о н/о +20.0 +11.3 57 +21 +21 комфорт 1014.4 1012.3
15 15.06 В 5
{9}
н/о н/о +17.5 +16.4 93 +17 +17 1014.6 1012.6 1
16 15.06 В 5
{7}
н/о н/о +18.1 +15.3 84 +18 +18 1014.2 1012.2
17 15.06 В 3
{7}
н/о н/о +17.9 +16.4 91 +18 +18 1014.3 1012.2
18 15.06 СВ 3
{11}
н/о н/о +17.4 +17.4 100 +17 +17 1013.7 1011.6
19 15.06 СВ 3
{4}
н/о н/о +16.5 +16.5 100 +16 +16 1013.7 1011.6
20 15.06 СВ 3
{4}
н/о н/о +16.2 +15.8 97 +16 +16 1013.1 1011.1
21 15.06 СВ 2
{4}
н/о н/о +15.7 +15.0 96 +16 +16 1012.6 1010.6
22 15.06 В 3
{3}
н/о н/о +15.9 +14.9 94 +15 +15 1012.7 1010.6
23 15.06 В 2
{4}
н/о н/о +15.2 +15.1 99 +15 +15 1012.8 1010.7
00 16.06 В 3
{5}
н/о н/о +15.7 +13.2 85 +15 +15 1012.7 1010.6
01 16.06 В 4
{6}
н/о н/о +15.4 +13.6 89 +14 +14 1012.6 1010.5
02 16.06
{04}
н/о 1010.2
03 16.06
{03}
н/о 1010.1 1
04 16.06 штиль 0
{3}
н/о н/о +13.7 +13.7 100 +13 +13 1012.0 1009.9
05 16.06 штиль 0
{2}
н/о н/о +13.9 +13.9 100 +13 +13 1012.5 1010.4
06 16.06 ЮЗ 1
{6}
н/о н/о +14.4 +14.4 100 +15 +15 1012.7 1010.7 +13.6 +17.4 3
07 16.06 Ю 3
{4}
н/о н/о +15.2 +15.2 100 +14 +14 1013.0 1011.0
08 16.06 ЮЗ 3
{6}
н/о н/о +15.4 +15.4 100 +15 +15 1013.7 1011.7
09 16.06 З 4
{6}
н/о н/о +17.2 +14.4 84 +17 +17 1014.1 1012.1
10 16.06 З 5
{9}
н/о н/о +18.8 +11.6 63 +19 +19 1014.4 1012.4
11 16.06 Ю 7
{10}
н/о н/о +18.6 +12.9 69 +19 +19 1014.6 1012.5
12 16.06 Ю 9
{10}
н/о н/о +17.4 +12.4 72 +16 +16 1015.3 1013.2
13 16.06 Ю 8
{10}
н/о н/о +17.9 +12.2 69 +17 +17 1015.7 1013.6
14 16.06 Ю 9
{12}
н/о н/о +16.1 +13.7 86 +14 +14 1016.0 1014.0
15 16.06 Ю 7
{10}
н/о н/о +16.9 +13.7 81 +16 +16 1016.2 1014.2
16 16.06 Ю 7
{10}
н/о н/о +16.1 +14.5 90 +15 +15 1016.3 1014.3
17 16.06 Ю 7
{10}
н/о н/о +16.0 +14.6 91 +14 +14 1016.4 1014.3
18 16.06 ЮЗ 8
{12}
н/о н/о +15.8 +11.6 76 +14 +14 1016.7 1014.6 +14.3 +19.9
19 16.06 ЮЗ 5
{9}
н/о н/о +15.0 +10.4 74 +14 +14 1017.0 1014.9
20 16.06 ЮЗ 5
{9}
н/о н/о +13.8 +11.6 87 +12 +12 1017.1 1015.0
21 16.06 ЮЗ 4
{5}
н/о н/о +12.9 +11.5 91 +11 +11 1017.3 1015.2
22 16.06 ЮЗ 3
{5}
н/о н/о +12.2 +11.9 98 +10 +10 1017.7 1015.6
23 16.06 ЮЗ 2
{5}
н/о н/о +11.3 +10.9 97 +10 +10 1018.0 1015.9
00 17.06
{09}
н/о
01 17.06 СВ 1
{3}
н/о н/о +8.2 +8.2 100 +7 +7 1018.1 1015.9
02 17.06 СВ 3
{3}
н/о н/о +7.4 +7.3 99 +4 +4 1018.1 1016.0
03 17.06 СВ 2
{3}
н/о н/о +8.2 +8.2 100 +6 +6 1018.0 1015.9
04 17.06 СВ 2
{2}
н/о н/о +9.0 +9.0 100 +7 +7 1018.0 1015.9
05 17.06 СВ 2
{2}
н/о н/о +10.3 +10.3 100 +9 +9 1018.2 1016.1
06 17.06 штиль 0
{3}
н/о н/о +13.4 +10.6 83 +13 +13 1018.1 1016.0
07 17.06 ЮЗ 1
{2}
н/о н/о +13.7 +12.0 89 +14 +14 1018.2 1016.1
08 17.06 ЮЗ 2
{3}
н/о н/о +13.7 +13.5 99 +13 +13 1018.2 1016.1
09 17.06 Ю 3
{4}
н/о н/о +14.1 +14.1 100 +13 +13 1018.3 1016.2
10 17.06 Ю 3
{4}
н/о н/о +15.3 +13.8 91 +15 +15 1018.2 1016.1
11 17.06 Ю 4
{5}
н/о н/о +14.8 +14.6 99 +13 +13 1018.2 1016.1
12 17.06 Ю 4
{7}
н/о н/о +14.7 +14.7 100 +13 +13 1018.1 1016.0
13 17.06 Ю 6
{9}
н/о н/о +15.4 +15.2 99 +14 +14 1017.9 1015.8
14 17.06 Ю 7
{9}
н/о н/о +15.7 +14.5 93 +14 +14 1017.6 1015.5
15 17.06 ЮЗ 6
{9}
н/о н/о +15.5 +14.1 91 +14 +14 1017.6 1015.5
16 17.06 ЮЗ 6
{8}
н/о н/о +15.3 +13.1 87 +14 +14 1017.4 1015.3
17 17.06 ЮЗ 6
{8}
н/о н/о +14.5 +13.9 96 +13 +13 1017.5 1015.4
18 17.06 ЮЗ 8
{9}
н/о н/о +14.4 +13.9 97 +12 +12 1017.5 1015.4 +13.0 +16.9
19 17.06 ЮЗ 6
{9}
н/о н/о +14.2 +13.8 97 +12 +12 1017.5 1015.4
20 17.06 ЮЗ 5
{8}
н/о н/о +13.9 +13.5 97 +12 +12 1017.7 1015.6
21 17.06 ЮЗ 5
{8}
н/о н/о +14.0 +13.6 97 +12 +12 1017.8 1015.8
22 17.06 ЮЗ 5
{7}
н/о н/о +13.5 +13.5 100 +11 +11 1017.5 1015.4
23 17.06 ЮЗ 4
{6}
н/о н/о +13.2 +13.2 100 +11 +11 1017.2 1015.1
00 18.06 ЮЗ 3
{9}
н/о н/о +13.1 +13.1 100 +12 +12 1017.1 1015.0
01 18.06 СВ 1
{3}
н/о н/о +12.3 +12.3 100 +12 +12 1016.5 1014.4
02 18.06 СВ 2
{2}
н/о н/о +12.3 +12.3 100 +11 +11 1016.1 1014.0
03 18.06 СВ 2
{3}
н/о н/о +12.8 +12.8 100 +12 +12 1015.8 1013.7
04 18.06 СВ 2
{3}
н/о н/о +12.9 +12.9 100 +12 +12 1015.1 1013.0
05 18.06 СВ 2
{4}
н/о н/о +13.5 +13.5 100 +13 +13 1014.8 1012.7
06 18.06 СВ 2
{4}
н/о н/о +15.0 +14.5 97 +15 +15 1014.4 1012.3 +12.1 +15.0
07 18.06 ЮЗ 2
{3}
н/о н/о +15.3 +14.9 97 +15 +15 1014.2 1012.2
08 18.06 Ю 4
{6}
н/о н/о +16.3 +14.5 89 +16 +16 1014.3 1012.2
09 18.06 Ю 4
{6}
н/о н/о +17.2 +14.1 82 +17 +17 1014.1 1012.0
10 18.06 Ю 6
{7}
н/о н/о +16.9 +14.7 87 +16 +16 1014.1 1012.1
11 18.06 Ю 5
{7}
н/о н/о +17.8 +12.9 73 +17 +17 1014.2 1012.2
12 18.06 Ю 5
{7}
н/о н/о +17.4 +14.3 82 +17 +17 1014.2 1012.1
13 18.06 Ю 5
{7}
н/о н/о +17.8 +13.4 75 +17 +17 1013.9 1011.9
14 18.06 Ю 6
{7}
н/о н/о +17.3 +14.0 81 +16 +16 1013.6 1011.5
15 18.06 Ю 5
{14}
н/о н/о +17.5 +13.3 76 +17 +17 1013.1 1011.0
16 18.06 Ю 5
{7}
н/о н/о +17.6 +14.3 81 +17 +17 1013.0 1010.9
17 18.06 Ю 5
{8}
н/о н/о +16.8 +14.5 86 +16 +16 1012.7 1010.7
18 18.06 Ю 5
{14}
н/о н/о +16.4 +14.8 90 +15 +15 1012.5 1010.5 +15.0 +18.4
19 18.06 Ю 5
{6}
н/о н/о +15.7 +14.9 95 +14 +14 1012.5 1010.4
20 18.06 Ю 4
{6}
н/о н/о +15.0 +15.0 100 +14 +14 1012.6 1010.5
21 18.06 Ю 2
{4}
н/о н/о +14.1 +14.1 100 +13 +13 1012.8 1010.7
22 18.06 Ю 3
{3}
н/о н/о +13.5 +13.4 99 +12 +12 1012.7 1010.7
23 18.06 В 1
{4}
н/о н/о +12.1 +12.1 100 +12 +12 1012.8 1010.7
00 19.06 В 2
{6}
н/о н/о +12.0 +12.0 100 +11 +11 1012.7 1010.7
01 19.06 В 2
{3}
н/о н/о +11.7 +11.7 100 +10 +10 1012.6 1010.5
02 19.06 СВ 1
{2}
н/о н/о +11.6 +11.6 100 +11 +11 1012.5 1010.4
03 19.06 В 1
{2}
н/о н/о +11.5 +11.5 100 +11 +11 1012.0 1009.9
05 19.06 СЗ 2
{3}
н/о н/о +13.1 +10.8 86 +12 +12 1012.1 1010.0
06 19.06 штиль 0
{4}
н/о н/о +13.9 +11.6 86 +13 +13 1011.8 1009.7 +11.2 +16.6
07 19.06 штиль 0
{2}
н/о н/о +14.5 +12.3 87 +14 +14 1011.7 1009.6
08 19.06 ЮЗ 2
{2}
н/о н/о +14.9 +11.4 80 +15 +15 1011.7 1009.6

 

Местоположение метеостанции Кьевик (Норвегия): широта 58.20 долгота 8.08 высота над уровнем моря 12 м.

В архиве по умолчанию представлена погода в Кьевике за последнюю неделю. Архивные данные за месяц целиком и за предыдущие месяцы, начиная с января 2011 года, Вы можете получить, выбрав интересующий диапазон дат из раскрывающегося списка и нажав кнопку "Ввод!".


*Определитесь, кто Вы:
робот инопланетянин человек

Внимание! Время в таблицах - всемирное. Для получения местного времени необходимо прибавить поправку, которая равна 1 ч.

Смотрите также архив погоды в соседних городах и на ближайших метеорологических станциях:

Погода на Маяке Oksoy (Норвегия) (15 км)
Погода в Ландвике (Норвегия) (30 км)
Погода в Мандале (Норвегия) (42 км)
Погода в Консмо-Хойланде (Норвегия) (42 км)
Погода на Маяке Torungen (Норвегия) (48 км)
Погода в Хюннеклейве (Норвегия) (49 км)
Погода в Бигландсфьорде (Норвегия) (57 км)
Погода в Нелауге (Норвегия) (59 км)
Погода на Маяке Lindesnes (Норвегия) (65 км)
Погода на Маяке Lyngor (Норвегия) (79 км)

Пояснения к столбцам:

Ветер - указаны скорость ветра в м/с - средняя за 10 мин, порывы в срок и между сроками (в фигурных скобках) и направление, откуда дует ветер: С - северный, СВ - северо-восточный, В - восточный, ЮВ - юго-восточный, Ю - южный, ЮЗ - юго-западный, З - западный, СЗ - северо-западный.
Видимость - горизонтальная дальность видимости в метрах или километрах. При видимости от 1 до 10 км при отсутствии осадков обычно наблюдается дымка, при ухудшении видимости до 1 км и менее - туман. В сухую погоду видимость может ухудшаться дымом, пылью или мглою.
Явления - указаны атмосферные явления, наблюдавшиеся в срок или в последний час перед сроком; фигурными скобками обозначены явления, наблюдавшиеся между сроками (за 1-3 часа до срока); квадратными скобками обозначены град или гололедные отложения с указанием их диаметра в мм.
Облачность - указаны через наклонную черту общая и нижняя облачность в баллах и высота нижней границы облаков в метрах; квадратными скобками обозначены формы облаков: Ci - перистые, Cs - перисто-слоистые, Cc - перисто-кучевые, Ac - высококучевые, As - высокослоистые, Sc - слоисто-кучевые, Ns - слоисто-дождевые, Cu - кучевые, Cb - кучево-дождевые. Подробнее классификацию облаков см. в Атласе облаков (PDF).
T - Температура воздуха - температура, измеренная на высоте 2 м над землей.
Td - Температура точки росы - температура, при понижении до которой содержащийся в воздухе водяной пар достигнет насыщения.
f - Относительная влажность воздуха - влажноcть воздуха, измеренная на высоте 2 м над землей.
Te - Эффективная температура - температура, которую ощущает одетый по сезону человек в тени. Характеристика душности погоды. При расчете учитывается влияние влажности воздуха и скорости ветра на теплоощущения человека.
Tes - Эффективная температура на солнце - температура, которую ощущает человек, с поправкой на солнечный нагрев. Характеристика знойности погоды. Зависит от высоты солнца над горизонтом, облачности и скорости ветра. Ночью, в пасмурную погоду, а также при ветре 12 м/с и более поправка равна нулю.
P - Атмосферное давление - приведенное к уровню моря атмосферное давление.
Po - Атмосферное давление - измеренное на уровне метеостанции атмосферное давление.
Tmin - Минимальная температура - минимум температуры воздуха на высоте 2 м над землей.
Tmax - Максимальная температура - максимум температуры воздуха на высоте 2 м над землей.
R - Количество осадков - Количество выпавших осадков за период времени, мм. При наведении курсора мыши на число - период времени, за который выпало указанное количество осадков.
R24 - Количество осадков - Количество выпавших осадков за 24 часа, мм.
S - Снежный покров - Высота снежного покрова, см. При наведении курсора мыши на число - состояние снежного покрова и степень покрытия местности в баллах.